owner,sensor,date,latitude,longitude,air_temperature,qcFlag 
COMPS,ioos:station:USF.COMPS:ARP:1,2019-05-10T15:54:00,28.4330,-82.6670,33.77,11111222 
COMPS,ioos:station:USF.COMPS:ARP:1,2019-05-10T16:54:00,28.4330,-82.6670,34.76,11111222 
COMPS,ioos:station:USF.COMPS:ARP:1,2019-05-10T17:54:00,28.4330,-82.6670,35.32,11111222 
COMPS,ioos:station:USF.COMPS:ARP:1,2019-05-10T18:54:00,28.4330,-82.6670,34.75,11111222 
COMPS,ioos:station:USF.COMPS:ARP:1,2019-05-10T19:54:00,28.4330,-82.6670,34.61,11111222 
COMPS,ioos:station:USF.COMPS:ARP:1,2019-05-10T20:54:00,28.4330,-82.6670,33.46,11111222 
COMPS,ioos:station:USF.COMPS:ARP:1,2019-05-10T21:54:00,28.4330,-82.6670,32.86,11111222 
COMPS,ioos:station:USF.COMPS:ARP:1,2019-05-10T22:54:00,28.4330,-82.6670,32.62,11111222 
COMPS,ioos:station:USF.COMPS:ARP:1,2019-05-10T23:54:00,28.4330,-82.6670,32.45,11111222 
COMPS,ioos:station:USF.COMPS:ARP:1,2019-05-11T00:54:00,28.4330,-82.6670,32.39,11111222 
COMPS,ioos:station:USF.COMPS:ARP:1,2019-05-11T01:54:00,28.4330,-82.6670,32.77,11111222 
COMPS,ioos:station:USF.COMPS:ARP:1,2019-05-11T02:54:00,28.4330,-82.6670,31.42,11111222 
COMPS,ioos:station:USF.COMPS:ARP:1,2019-05-11T03:54:00,28.4330,-82.6670,30.62,11111222 
COMPS,ioos:station:USF.COMPS:ARP:1,2019-05-11T04:54:00,28.4330,-82.6670,26.29,11111222 
COMPS,ioos:station:USF.COMPS:ARP:1,2019-05-11T05:54:00,28.4330,-82.6670,26.06,11111222 
COMPS,ioos:station:USF.COMPS:ARP:1,2019-05-11T06:54:00,28.4330,-82.6670,25.8,11111222 
COMPS,ioos:station:USF.COMPS:ARP:1,2019-05-11T07:54:00,28.4330,-82.6670,25.36,11111222 
COMPS,ioos:station:USF.COMPS:ARP:1,2019-05-11T08:54:00,28.4330,-82.6670,24.96,11111222 
COMPS,ioos:station:USF.COMPS:ARP:1,2019-05-11T09:54:00,28.4330,-82.6670,24.69,11111222 
COMPS,ioos:station:USF.COMPS:ARP:1,2019-05-11T10:54:00,28.4330,-82.6670,24.47,11111222 
COMPS,ioos:station:USF.COMPS:ARP:1,2019-05-11T11:54:00,28.4330,-82.6670,25.45,11111222 
COMPS,ioos:station:USF.COMPS:ARP:1,2019-05-13T12:54:00,28.4330,-82.6670,32.79,11111222 
COMPS,ioos:station:USF.COMPS:ARP:1,2019-05-13T13:54:00,28.4330,-82.6670,33.05,11111222 
COMPS,ioos:station:USF.COMPS:ARP:1,2019-05-13T14:54:00,28.4330,-82.6670,32.53,11111222 
COMPS,ioos:station:USF.COMPS:ARP:1,2019-05-13T15:54:00,28.4330,-82.6670,23.85,11111222 
COMPS,ioos:station:USF.COMPS:ARP:1,2019-05-13T16:54:00,28.4330,-82.6670,25.5,11111222 
COMPS,ioos:station:USF.COMPS:ARP:1,2019-05-13T17:54:00,28.4330,-82.6670,25.28,11111222 
COMPS,ioos:station:USF.COMPS:ARP:1,2019-05-13T18:54:00,28.4330,-82.6670,24.82,11111222 
COMPS,ioos:station:USF.COMPS:ARP:1,2019-05-13T19:54:00,28.4330,-82.6670,25.17,11111222 
COMPS,ioos:station:USF.COMPS:ARP:1,2019-05-13T20:54:00,28.4330,-82.6670,26.14,11111222 
COMPS,ioos:station:USF.COMPS:ARP:1,2019-05-13T21:54:00,28.4330,-82.6670,30.0,11111222 
COMPS,ioos:station:USF.COMPS:ARP:1,2019-05-13T22:54:00,28.4330,-82.6670,30.88,11111222 
COMPS,ioos:station:USF.COMPS:ARP:1,2019-05-13T23:54:00,28.4330,-82.6670,30.1,11111222 
COMPS,ioos:station:USF.COMPS:ARP:1,2019-05-14T00:54:00,28.4330,-82.6670,31.39,11111222 
COMPS,ioos:station:USF.COMPS:ARP:1,2019-05-14T01:54:00,28.4330,-82.6670,28.67,11111222 
COMPS,ioos:station:USF.COMPS:ARP:1,2019-05-14T02:54:00,28.4330,-82.6670,29.19,11111222 
COMPS,ioos:station:USF.COMPS:ARP:1,2019-05-14T03:54:00,28.4330,-82.6670,29.82,11111222 
COMPS,ioos:station:USF.COMPS:ARP:1,2019-05-14T04:54:00,28.4330,-82.6670,30.82,11111222 
COMPS,ioos:station:USF.COMPS:ARP:1,2019-05-14T05:54:00,28.4330,-82.6670,30.79,11111222 
COMPS,ioos:station:USF.COMPS:ARP:1,2019-05-14T06:54:00,28.4330,-82.6670,30.69,11111222 
COMPS,ioos:station:USF.COMPS:ARP:1,2019-05-14T07:54:00,28.4330,-82.6670,30.82,11111222 
COMPS,ioos:station:USF.COMPS:ARP:1,2019-05-14T08:54:00,28.4330,-82.6670,27.8,11111222 
COMPS,ioos:station:USF.COMPS:ARP:1,2019-05-14T09:54:00,28.4330,-82.6670,28.31,11111222 
COMPS,ioos:station:USF.COMPS:ARP:1,2019-05-14T10:54:00,28.4330,-82.6670,28.76,11111222 
COMPS,ioos:station:USF.COMPS:ARP:1,2019-05-14T11:54:00,28.4330,-82.6670,30.52,11111222 
COMPS,ioos:station:USF.COMPS:ARP:1,2019-05-14T12:54:00,28.4330,-82.6670,30.76,11111222 
COMPS,ioos:station:USF.COMPS:ARP:1,2019-05-14T13:54:00,28.4330,-82.6670,31.15,11111222 
COMPS,ioos:station:USF.COMPS:ARP:1,2019-05-14T14:54:00,28.4330,-82.6670,31.16,11111222 
COMPS,ioos:station:USF.COMPS:ARP:1,2019-05-14T15:54:00,28.4330,-82.6670,30.89,11111222 
COMPS,ioos:station:USF.COMPS:ARP:1,2019-05-14T16:54:00,28.4330,-82.6670,29.42,11111222 
COMPS,ioos:station:USF.COMPS:ARP:1,2019-05-14T17:54:00,28.4330,-82.6670,30.02,11111222 
COMPS,ioos:station:USF.COMPS:ARP:1,2019-05-14T18:54:00,28.4330,-82.6670,30.4,11111222 
COMPS,ioos:station:USF.COMPS:ARP:1,2019-05-14T19:54:00,28.4330,-82.6670,31.44,11111222 
COMPS,ioos:station:USF.COMPS:ARP:1,2019-05-14T20:54:00,28.4330,-82.6670,31.49,11111222 
COMPS,ioos:station:USF.COMPS:ARP:1,2019-05-14T21:54:00,28.4330,-82.6670,31.14,11111222 
COMPS,ioos:station:USF.COMPS:ARP:1,2019-05-14T22:54:00,28.4330,-82.6670,28.88,11111222 
COMPS,ioos:station:USF.COMPS:ARP:1,2019-05-14T23:54:00,28.4330,-82.6670,28.85,11111222 
COMPS,ioos:station:USF.COMPS:ARP:1,2019-05-15T00:54:00,28.4330,-82.6670,29.07,11111222 
COMPS,ioos:station:USF.COMPS:ARP:1,2019-05-15T01:54:00,28.4330,-82.6670,29.79,11111222 
COMPS,ioos:station:USF.COMPS:ARP:1,2019-05-15T02:54:00,28.4330,-82.6670,30.32,11111222 
COMPS,ioos:station:USF.COMPS:ARP:1,2019-05-15T03:54:00,28.4330,-82.6670,30.59,11111222 
COMPS,ioos:station:USF.COMPS:ARP:1,2019-05-15T04:54:00,28.4330,-82.6670,25.38,11111222 
COMPS,ioos:station:USF.COMPS:ARP:1,2019-05-15T05:54:00,28.4330,-82.6670,24.67,11111222 
COMPS,ioos:station:USF.COMPS:ARP:1,2019-05-15T06:54:00,28.4330,-82.6670,24.65,11111222 
COMPS,ioos:station:USF.COMPS:ARP:1,2019-05-15T07:54:00,28.4330,-82.6670,24.99,11111222 
COMPS,ioos:station:USF.COMPS:ARP:1,2019-05-15T08:54:00,28.4330,-82.6670,24.87,11111222 
COMPS,ioos:station:USF.COMPS:ARP:1,2019-05-15T09:54:00,28.4330,-82.6670,23.94,11111222 
COMPS,ioos:station:USF.COMPS:ARP:1,2019-05-15T10:54:00,28.4330,-82.6670,24.72,11111222 
COMPS,ioos:station:USF.COMPS:ARP:1,2019-05-15T11:54:00,28.4330,-82.6670,23.61,11111222 
COMPS,ioos:station:USF.COMPS:ARP:1,2019-05-15T12:54:00,28.4330,-82.6670,25.51,11111222 
COMPS,ioos:station:USF.COMPS:ARP:1,2019-05-15T13:54:00,28.4330,-82.6670,29.31,11111222 
COMPS,ioos:station:USF.COMPS:ARP:1,2019-05-15T14:54:00,28.4330,-82.6670,30.31,11111222 
COMPS,ioos:station:USF.COMPS:ARP:1,2019-05-15T15:54:00,28.4330,-82.6670,31.73,11111222 
COMPS,ioos:station:USF.COMPS:ARP:1,2019-05-15T16:54:00,28.4330,-82.6670,31.76,11111222 
COMPS,ioos:station:USF.COMPS:ARP:1,2019-05-15T17:54:00,28.4330,-82.6670,31.73,11111222 
COMPS,ioos:station:USF.COMPS:ARP:1,2019-05-15T18:54:00,28.4330,-82.6670,31.44,11111222 
COMPS,ioos:station:USF.COMPS:ARP:1,2019-05-15T19:54:00,28.4330,-82.6670,31.97,11111222 
COMPS,ioos:station:USF.COMPS:ARP:1,2019-05-15T20:54:00,28.4330,-82.6670,32.32,11111222 
COMPS,ioos:station:USF.COMPS:ARP:1,2019-05-15T21:54:00,28.4330,-82.6670,32.41,11111222 
COMPS,ioos:station:USF.COMPS:ARP:1,2019-05-15T22:54:00,28.4330,-82.6670,32.43,11111222 
COMPS,ioos:station:USF.COMPS:ARP:1,2019-05-15T23:54:00,28.4330,-82.6670,31.59,11111222 
COMPS,ioos:station:USF.COMPS:ARP:1,2019-05-16T00:54:00,28.4330,-82.6670,31.1,11111222 
COMPS,ioos:station:USF.COMPS:ARP:1,2019-05-16T01:54:00,28.4330,-82.6670,31.27,11111222 
COMPS,ioos:station:USF.COMPS:ARP:1,2019-05-16T02:54:00,28.4330,-82.6670,30.03,11111222 
COMPS,ioos:station:USF.COMPS:ARP:1,2019-05-16T03:54:00,28.4330,-82.6670,25.62,11111222 
COMPS,ioos:station:USF.COMPS:ARP:1,2019-05-16T04:54:00,28.4330,-82.6670,25.2,11111222 
COMPS,ioos:station:USF.COMPS:ARP:1,2019-05-16T05:54:00,28.4330,-82.6670,24.37,11111222 
COMPS,ioos:station:USF.COMPS:ARP:1,2019-05-16T06:54:00,28.4330,-82.6670,23.8,11111222 
COMPS,ioos:station:USF.COMPS:ARP:1,2019-05-16T07:54:00,28.4330,-82.6670,22.99,11111222 
COMPS,ioos:station:USF.COMPS:ARP:1,2019-05-16T08:54:00,28.4330,-82.6670,22.85,11111222 
COMPS,ioos:station:USF.COMPS:ARP:1,2019-05-16T09:54:00,28.4330,-82.6670,22.59,11111222 
COMPS,ioos:station:USF.COMPS:ARP:1,2019-05-16T10:54:00,28.4330,-82.6670,22.31,11111222 
COMPS,ioos:station:USF.COMPS:ARP:1,2019-05-16T11:54:00,28.4330,-82.6670,24.79,11111222 
COMPS,ioos:station:USF.COMPS:ARP:1,2019-05-16T12:54:00,28.4330,-82.6670,27.85,11111222 
COMPS,ioos:station:USF.COMPS:ARP:1,2019-05-16T13:54:00,28.4330,-82.6670,30.23,11111222 
COMPS,ioos:station:USF.COMPS:ARP:1,2019-05-16T14:54:00,28.4330,-82.6670,31.83,11111222 
COMPS,ioos:station:USF.COMPS:ARP:1,2019-05-16T15:54:00,28.4330,-82.6670,32.74,11111222 
COMPS,ioos:station:USF.COMPS:ARP:1,2019-05-16T16:54:00,28.4330,-82.6670,31.89,11111222 
COMPS,ioos:station:USF.COMPS:ARP:1,2019-05-16T17:54:00,28.4330,-82.6670,31.98,11111222 
COMPS,ioos:station:USF.COMPS:ARP:1,2019-05-16T18:54:00,28.4330,-82.6670,32.44,11111222 
COMPS,ioos:station:USF.COMPS:ARP:1,2019-05-16T19:54:00,28.4330,-82.6670,32.59,11111222 
COMPS,ioos:station:USF.COMPS:ARP:1,2019-05-16T20:54:00,28.4330,-82.6670,32.95,11111222 
COMPS,ioos:station:USF.COMPS:ARP:1,2019-05-16T21:54:00,28.4330,-82.6670,33.43,11111222 
COMPS,ioos:station:USF.COMPS:ARP:1,2019-05-16T22:54:00,28.4330,-82.6670,33.33,11111222 
COMPS,ioos:station:USF.COMPS:ARP:1,2019-05-16T23:54:00,28.4330,-82.6670,33.49,11111222 
COMPS,ioos:station:USF.COMPS:ARP:1,2019-05-17T00:54:00,28.4330,-82.6670,32.26,11111222 
COMPS,ioos:station:USF.COMPS:ARP:1,2019-05-17T01:54:00,28.4330,-82.6670,30.46,11111222 
COMPS,ioos:station:USF.COMPS:ARP:1,2019-05-17T02:54:00,28.4330,-82.6670,30.55,11111222 
COMPS,ioos:station:USF.COMPS:ARP:1,2019-05-17T03:54:00,28.4330,-82.6670,30.02,11111222 
COMPS,ioos:station:USF.COMPS:ARP:1,2019-05-17T04:54:00,28.4330,-82.6670,24.96,11111222 
COMPS,ioos:station:USF.COMPS:ARP:1,2019-05-17T05:54:00,28.4330,-82.6670,23.86,11111222 
COMPS,ioos:station:USF.COMPS:ARP:1,2019-05-17T06:54:00,28.4330,-82.6670,23.51,11111222 
COMPS,ioos:station:USF.COMPS:ARP:1,2019-05-17T07:54:00,28.4330,-82.6670,22.65,11111222 
COMPS,ioos:station:USF.COMPS:ARP:1,2019-05-17T08:54:00,28.4330,-82.6670,22.03,11111222 
COMPS,ioos:station:USF.COMPS:ARP:1,2019-05-17T09:54:00,28.4330,-82.6670,21.55,11111222 
COMPS,ioos:station:USF.COMPS:ARP:1,2019-05-17T10:54:00,28.4330,-82.6670,21.27,11111222 
COMPS,ioos:station:USF.COMPS:ARP:1,2019-05-17T11:54:00,28.4330,-82.6670,23.22,11111222 
COMPS,ioos:station:USF.COMPS:ARP:1,2019-05-17T12:54:00,28.4330,-82.6670,26.92,11111222 
COMPS,ioos:station:USF.COMPS:ARP:1,2019-05-17T13:54:00,28.4330,-82.6670,30.37,11111222 
COMPS,ioos:station:USF.COMPS:ARP:1,2019-05-17T14:54:00,28.4330,-82.6670,32.45,11111222 
COMPS,ioos:station:USF.COMPS:ARP:1,2019-05-17T15:54:00,28.4330,-82.6670,32.54,11111222 
COMPS,ioos:station:USF.COMPS:ARP:1,2019-05-17T16:54:00,28.4330,-82.6670,31.74,11111222 
COMPS,ioos:station:USF.COMPS:ARP:1,2019-05-17T17:54:00,28.4330,-82.6670,31.94,11111222 
COMPS,ioos:station:USF.COMPS:ARP:1,2019-05-17T18:54:00,28.4330,-82.6670,32.37,11111222 
COMPS,ioos:station:USF.COMPS:ARP:1,2019-05-17T19:54:00,28.4330,-82.6670,33.12,11111222 
COMPS,ioos:station:USF.COMPS:ARP:1,2019-05-17T20:54:00,28.4330,-82.6670,32.71,11111222 
COMPS,ioos:station:USF.COMPS:ARP:1,2019-05-17T21:54:00,28.4330,-82.6670,32.42,11111222 
COMPS,ioos:station:USF.COMPS:ARP:1,2019-05-17T22:54:00,28.4330,-82.6670,33.42,11111222 
COMPS,ioos:station:USF.COMPS:ARP:1,2019-05-17T23:54:00,28.4330,-82.6670,33.7,11111222 
COMPS,ioos:station:USF.COMPS:ARP:1,2019-05-18T00:54:00,28.4330,-82.6670,32.85,11111222 
COMPS,ioos:station:USF.COMPS:ARP:1,2019-05-18T01:54:00,28.4330,-82.6670,30.05,11111222 
COMPS,ioos:station:USF.COMPS:ARP:1,2019-05-18T02:54:00,28.4330,-82.6670,30.09,11111222 
COMPS,ioos:station:USF.COMPS:ARP:1,2019-05-18T03:54:00,28.4330,-82.6670,30.19,11111222 
COMPS,ioos:station:USF.COMPS:ARP:1,2019-05-18T04:54:00,28.4330,-82.6670,28.64,11111222 
COMPS,ioos:station:USF.COMPS:ARP:1,2019-05-18T05:54:00,28.4330,-82.6670,23.07,11111222 
COMPS,ioos:station:USF.COMPS:ARP:1,2019-05-18T06:54:00,28.4330,-82.6670,22.34,11111222 
COMPS,ioos:station:USF.COMPS:ARP:1,2019-05-18T07:54:00,28.4330,-82.6670,22.0,11111222 
COMPS,ioos:station:USF.COMPS:ARP:1,2019-05-18T08:54:00,28.4330,-82.6670,21.67,11111222 
COMPS,ioos:station:USF.COMPS:ARP:1,2019-05-18T09:54:00,28.4330,-82.6670,21.05,11111222 
COMPS,ioos:station:USF.COMPS:ARP:1,2019-05-18T10:54:00,28.4330,-82.6670,20.82,11111222 
COMPS,ioos:station:USF.COMPS:ARP:1,2019-05-18T11:54:00,28.4330,-82.6670,22.95,11111222 
COMPS,ioos:station:USF.COMPS:ARP:1,2019-05-18T12:54:00,28.4330,-82.6670,26.94,11111222 
COMPS,ioos:station:USF.COMPS:ARP:1,2019-05-18T13:54:00,28.4330,-82.6670,30.77,11111222 
COMPS,ioos:station:USF.COMPS:ARP:1,2019-05-18T14:54:00,28.4330,-82.6670,32.38,11111222 
COMPS,ioos:station:USF.COMPS:ARP:1,2019-05-18T15:54:00,28.4330,-82.6670,31.47,11111222 
COMPS,ioos:station:USF.COMPS:ARP:1,2019-05-18T16:54:00,28.4330,-82.6670,31.0,11111222 
COMPS,ioos:station:USF.COMPS:ARP:1,2019-05-18T17:54:00,28.4330,-82.6670,31.63,11111222 
COMPS,ioos:station:USF.COMPS:ARP:1,2019-05-18T18:54:00,28.4330,-82.6670,32.9,11111222 
COMPS,ioos:station:USF.COMPS:ARP:1,2019-05-18T19:54:00,28.4330,-82.6670,33.47,11111222 
COMPS,ioos:station:USF.COMPS:ARP:1,2019-05-18T20:54:00,28.4330,-82.6670,33.35,11111222 
COMPS,ioos:station:USF.COMPS:ARP:1,2019-05-18T21:54:00,28.4330,-82.6670,34.42,11111222 
COMPS,ioos:station:USF.COMPS:ARP:1,2019-05-18T22:54:00,28.4330,-82.6670,34.56,11111222 
COMPS,ioos:station:USF.COMPS:ARP:1,2019-05-18T23:54:00,28.4330,-82.6670,34.98,11111222 
COMPS,ioos:station:USF.COMPS:ARP:1,2019-05-19T00:54:00,28.4330,-82.6670,33.28,11111222 
COMPS,ioos:station:USF.COMPS:ARP:1,2019-05-19T01:54:00,28.4330,-82.6670,31.25,11111222 
COMPS,ioos:station:USF.COMPS:ARP:1,2019-05-19T02:54:00,28.4330,-82.6670,29.49,11111222 
COMPS,ioos:station:USF.COMPS:ARP:1,2019-05-19T03:54:00,28.4330,-82.6670,24.82,11111222 
COMPS,ioos:station:USF.COMPS:ARP:1,2019-05-19T04:54:00,28.4330,-82.6670,23.82,11111222 
COMPS,ioos:station:USF.COMPS:ARP:1,2019-05-19T05:54:00,28.4330,-82.6670,22.78,11111222 
COMPS,ioos:station:USF.COMPS:ARP:1,2019-05-19T06:54:00,28.4330,-82.6670,22.62,11111222 
COMPS,ioos:station:USF.COMPS:ARP:1,2019-05-19T07:54:00,28.4330,-82.6670,22.06,11111222 
COMPS,ioos:station:USF.COMPS:ARP:1,2019-05-19T08:54:00,28.4330,-82.6670,21.65,11111222 
COMPS,ioos:station:USF.COMPS:ARP:1,2019-05-19T09:54:00,28.4330,-82.6670,21.42,11111222 
COMPS,ioos:station:USF.COMPS:ARP:1,2019-05-19T10:54:00,28.4330,-82.6670,20.93,11111222 
COMPS,ioos:station:USF.COMPS:ARP:1,2019-05-19T11:54:00,28.4330,-82.6670,22.93,11111222 
COMPS,ioos:station:USF.COMPS:ARP:1,2019-05-19T12:54:00,28.4330,-82.6670,26.87,11111222 
COMPS,ioos:station:USF.COMPS:ARP:1,2019-05-19T13:54:00,28.4330,-82.6670,31.46,11111222 
COMPS,ioos:station:USF.COMPS:ARP:1,2019-05-19T14:54:00,28.4330,-82.6670,33.59,11111222 
COMPS,ioos:station:USF.COMPS:ARP:1,2019-05-19T15:54:00,28.4330,-82.6670,30.85,11111222 
COMPS,ioos:station:USF.COMPS:ARP:1,2019-05-19T16:54:00,28.4330,-82.6670,31.13,11111222 
COMPS,ioos:station:USF.COMPS:ARP:1,2019-05-19T17:54:00,28.4330,-82.6670,31.75,11111222 
COMPS,ioos:station:USF.COMPS:ARP:1,2019-05-19T18:54:00,28.4330,-82.6670,31.58,11111222 
COMPS,ioos:station:USF.COMPS:ARP:1,2019-05-19T19:54:00,28.4330,-82.6670,32.3,11111222 
COMPS,ioos:station:USF.COMPS:ARP:1,2019-05-19T20:54:00,28.4330,-82.6670,32.87,11111222 
COMPS,ioos:station:USF.COMPS:ARP:1,2019-05-19T21:54:00,28.4330,-82.6670,32.48,11111222 
COMPS,ioos:station:USF.COMPS:ARP:1,2019-05-19T22:54:00,28.4330,-82.6670,32.94,11111222 
COMPS,ioos:station:USF.COMPS:ARP:1,2019-05-19T23:54:00,28.4330,-82.6670,32.41,11111222 
COMPS,ioos:station:USF.COMPS:ARP:1,2019-05-20T00:54:00,28.4330,-82.6670,31.99,11111222 
COMPS,ioos:station:USF.COMPS:ARP:1,2019-05-20T01:54:00,28.4330,-82.6670,31.93,11111222 
COMPS,ioos:station:USF.COMPS:ARP:1,2019-05-20T02:54:00,28.4330,-82.6670,31.7,11111222 
COMPS,ioos:station:USF.COMPS:ARP:1,2019-05-20T03:54:00,28.4330,-82.6670,25.69,11111222 
COMPS,ioos:station:USF.COMPS:ARP:1,2019-05-20T04:54:00,28.4330,-82.6670,24.75,11111222 
COMPS,ioos:station:USF.COMPS:ARP:1,2019-05-20T05:54:00,28.4330,-82.6670,25.25,11111222 
COMPS,ioos:station:USF.COMPS:ARP:1,2019-05-20T06:54:00,28.4330,-82.6670,24.47,11111222 
COMPS,ioos:station:USF.COMPS:ARP:1,2019-05-20T07:54:00,28.4330,-82.6670,24.27,11111222 
COMPS,ioos:station:USF.COMPS:ARP:1,2019-05-20T08:54:00,28.4330,-82.6670,24.43,11111222 
COMPS,ioos:station:USF.COMPS:ARP:1,2019-05-20T09:54:00,28.4330,-82.6670,24.48,11111222 
COMPS,ioos:station:USF.COMPS:ARP:1,2019-05-20T10:54:00,28.4330,-82.6670,24.41,11111222 
COMPS,ioos:station:USF.COMPS:ARP:1,2019-05-20T11:54:00,28.4330,-82.6670,26.42,11111222 
COMPS,ioos:station:USF.COMPS:ARP:1,2019-05-20T12:54:00,28.4330,-82.6670,31.12,11111222 
COMPS,ioos:station:USF.COMPS:ARP:1,2019-05-20T13:54:00,28.4330,-82.6670,32.82,11111222 
COMPS,ioos:station:USF.COMPS:ARP:1,2019-05-20T14:54:00,28.4330,-82.6670,31.67,11111222 
COMPS,ioos:station:USF.COMPS:ARP:1,2019-05-20T15:54:00,28.4330,-82.6670,32.17,11111222 
COMPS,ioos:station:USF.COMPS:ARP:1,2019-05-20T16:54:00,28.4330,-82.6670,31.99,11111222 
COMPS,ioos:station:USF.COMPS:ARP:1,2019-05-20T17:54:00,28.4330,-82.6670,32.97,11111222 
COMPS,ioos:station:USF.COMPS:ARP:1,2019-05-20T18:54:00,28.4330,-82.6670,32.88,11111222 
COMPS,ioos:station:USF.COMPS:ARP:1,2019-05-20T19:54:00,28.4330,-82.6670,33.26,11111222 
COMPS,ioos:station:USF.COMPS:ARP:1,2019-05-20T20:54:00,28.4330,-82.6670,33.22,11111222 
COMPS,ioos:station:USF.COMPS:ARP:1,2019-05-20T21:54:00,28.4330,-82.6670,33.87,11111222 
COMPS,ioos:station:USF.COMPS:ARP:1,2019-05-20T22:54:00,28.4330,-82.6670,33.55,11111222 
COMPS,ioos:station:USF.COMPS:ARP:1,2019-05-20T23:54:00,28.4330,-82.6670,33.07,11111222 
COMPS,ioos:station:USF.COMPS:ARP:1,2019-05-21T00:54:00,28.4330,-82.6670,32.76,11111222 
COMPS,ioos:station:USF.COMPS:ARP:1,2019-05-21T01:54:00,28.4330,-82.6670,32.58,11111222 
COMPS,ioos:station:USF.COMPS:ARP:1,2019-05-21T02:54:00,28.4330,-82.6670,31.38,11111222 
COMPS,ioos:station:USF.COMPS:ARP:1,2019-05-21T03:54:00,28.4330,-82.6670,30.83,11111222 
COMPS,ioos:station:USF.COMPS:ARP:1,2019-05-21T04:54:00,28.4330,-82.6670,30.59,11111222 
COMPS,ioos:station:USF.COMPS:ARP:1,2019-05-21T05:54:00,28.4330,-82.6670,26.18,11111222 
COMPS,ioos:station:USF.COMPS:ARP:1,2019-05-21T06:54:00,28.4330,-82.6670,25.98,11111222 
COMPS,ioos:station:USF.COMPS:ARP:1,2019-05-21T07:54:00,28.4330,-82.6670,25.28,11111222 
COMPS,ioos:station:USF.COMPS:ARP:1,2019-05-21T08:54:00,28.4330,-82.6670,24.84,11111222 
COMPS,ioos:station:USF.COMPS:ARP:1,2019-05-21T09:54:00,28.4330,-82.6670,24.75,11111222 
COMPS,ioos:station:USF.COMPS:ARP:1,2019-05-21T10:54:00,28.4330,-82.6670,24.52,11111222 
COMPS,ioos:station:USF.COMPS:ARP:1,2019-05-21T11:54:00,28.4330,-82.6670,27.27,11111222 
COMPS,ioos:station:USF.COMPS:ARP:1,2019-05-21T12:54:00,28.4330,-82.6670,31.96,11111222 
COMPS,ioos:station:USF.COMPS:ARP:1,2019-05-21T13:54:00,28.4330,-82.6670,33.28,11111222 
COMPS,ioos:station:USF.COMPS:ARP:1,2019-05-21T14:54:00,28.4330,-82.6670,34.22,11111222 
COMPS,ioos:station:USF.COMPS:ARP:1,2019-05-21T15:54:00,28.4330,-82.6670,32.88,11111222 
COMPS,ioos:station:USF.COMPS:ARP:1,2019-05-21T16:54:00,28.4330,-82.6670,32.79,11111222 
COMPS,ioos:station:USF.COMPS:ARP:1,2019-05-21T17:54:00,28.4330,-82.6670,32.51,11111222 
COMPS,ioos:station:USF.COMPS:ARP:1,2019-05-21T18:54:00,28.4330,-82.6670,32.73,11111222 
COMPS,ioos:station:USF.COMPS:ARP:1,2019-05-21T19:54:00,28.4330,-82.6670,32.89,11111222 
COMPS,ioos:station:USF.COMPS:ARP:1,2019-05-21T20:54:00,28.4330,-82.6670,33.02,11111222 
COMPS,ioos:station:USF.COMPS:ARP:1,2019-05-21T21:54:00,28.4330,-82.6670,33.27,11111222 
COMPS,ioos:station:USF.COMPS:ARP:1,2019-05-21T22:54:00,28.4330,-82.6670,33.39,11111222 
COMPS,ioos:station:USF.COMPS:ARP:1,2019-05-21T23:54:00,28.4330,-82.6670,33.24,11111222 
COMPS,ioos:station:USF.COMPS:ARP:1,2019-05-22T00:54:00,28.4330,-82.6670,33.15,11111222 
COMPS,ioos:station:USF.COMPS:ARP:1,2019-05-22T01:54:00,28.4330,-82.6670,32.87,11111222 
COMPS,ioos:station:USF.COMPS:ARP:1,2019-05-22T02:54:00,28.4330,-82.6670,32.67,11111222 
COMPS,ioos:station:USF.COMPS:ARP:1,2019-05-22T03:54:00,28.4330,-82.6670,31.17,11111222 
COMPS,ioos:station:USF.COMPS:ARP:1,2019-05-22T04:54:00,28.4330,-82.6670,31.13,11111222 
COMPS,ioos:station:USF.COMPS:ARP:1,2019-05-22T05:54:00,28.4330,-82.6670,27.06,11111222 
COMPS,ioos:station:USF.COMPS:ARP:1,2019-05-22T06:54:00,28.4330,-82.6670,26.46,11111222 
COMPS,ioos:station:USF.COMPS:ARP:1,2019-05-22T07:54:00,28.4330,-82.6670,26.11,11111222 
COMPS,ioos:station:USF.COMPS:ARP:1,2019-05-22T08:54:00,28.4330,-82.6670,25.79,11111222 
COMPS,ioos:station:USF.COMPS:ARP:1,2019-05-22T09:54:00,28.4330,-82.6670,25.11,11111222 
COMPS,ioos:station:USF.COMPS:ARP:1,2019-05-22T10:54:00,28.4330,-82.6670,25.01,11111222 
COMPS,ioos:station:USF.COMPS:ARP:1,2019-05-22T11:54:00,28.4330,-82.6670,27.08,11111222 
COMPS,ioos:station:USF.COMPS:ARP:1,2019-05-22T12:54:00,28.4330,-82.6670,31.14,11111222 
COMPS,ioos:station:USF.COMPS:ARP:1,2019-05-22T13:54:00,28.4330,-82.6670,32.84,11111222 
COMPS,ioos:station:USF.COMPS:ARP:1,2019-05-22T14:54:00,28.4330,-82.6670,32.84,11111222 
COMPS,ioos:station:USF.COMPS:ARP:1,2019-05-22T15:54:00,28.4330,-82.6670,32.58,11111222 
COMPS,ioos:station:USF.COMPS:ARP:1,2019-05-22T16:54:00,28.4330,-82.6670,32.71,11111222 
COMPS,ioos:station:USF.COMPS:ARP:1,2019-05-22T17:54:00,28.4330,-82.6670,32.75,11111222 
COMPS,ioos:station:USF.COMPS:ARP:1,2019-05-22T18:54:00,28.4330,-82.6670,32.93,11111222 
COMPS,ioos:station:USF.COMPS:ARP:1,2019-05-22T19:54:00,28.4330,-82.6670,33.86,11111222 
COMPS,ioos:station:USF.COMPS:ARP:1,2019-05-22T20:54:00,28.4330,-82.6670,34.26,11111222 
COMPS,ioos:station:USF.COMPS:ARP:1,2019-05-22T21:54:00,28.4330,-82.6670,35.89,11111222 
COMPS,ioos:station:USF.COMPS:ARP:1,2019-05-22T22:54:00,28.4330,-82.6670,37.41,11111222 
COMPS,ioos:station:USF.COMPS:ARP:1,2019-05-22T23:54:00,28.4330,-82.6670,36.22,11111222 
COMPS,ioos:station:USF.COMPS:ARP:1,2019-05-23T00:54:00,28.4330,-82.6670,34.31,11111222 
COMPS,ioos:station:USF.COMPS:ARP:1,2019-05-23T01:54:00,28.4330,-82.6670,32.55,11111222 
COMPS,ioos:station:USF.COMPS:ARP:1,2019-05-23T02:54:00,28.4330,-82.6670,31.62,11111222 
COMPS,ioos:station:USF.COMPS:ARP:1,2019-05-23T03:54:00,28.4330,-82.6670,26.66,11111222 
COMPS,ioos:station:USF.COMPS:ARP:1,2019-05-23T04:54:00,28.4330,-82.6670,25.5,11111222 
COMPS,ioos:station:USF.COMPS:ARP:1,2019-05-23T05:54:00,28.4330,-82.6670,24.81,11111222 
COMPS,ioos:station:USF.COMPS:ARP:1,2019-05-23T06:54:00,28.4330,-82.6670,24.28,11111222 
COMPS,ioos:station:USF.COMPS:ARP:1,2019-05-23T07:54:00,28.4330,-82.6670,23.76,11111222 
COMPS,ioos:station:USF.COMPS:ARP:1,2019-05-23T08:54:00,28.4330,-82.6670,23.56,11111222 
COMPS,ioos:station:USF.COMPS:ARP:1,2019-05-23T09:54:00,28.4330,-82.6670,23.26,11111222 
COMPS,ioos:station:USF.COMPS:ARP:1,2019-05-23T10:54:00,28.4330,-82.6670,23.23,11111222 
COMPS,ioos:station:USF.COMPS:ARP:1,2019-05-23T11:54:00,28.4330,-82.6670,25.15,11111222 
COMPS,ioos:station:USF.COMPS:ARP:1,2019-05-23T12:54:00,28.4330,-82.6670,28.45,11111222 
COMPS,ioos:station:USF.COMPS:ARP:1,2019-05-23T13:54:00,28.4330,-82.6670,31.53,11111222 
COMPS,ioos:station:USF.COMPS:ARP:1,2019-05-23T14:54:00,28.4330,-82.6670,33.04,11111222 
COMPS,ioos:station:USF.COMPS:ARP:1,2019-05-23T15:54:00,28.4330,-82.6670,34.37,11111222 
COMPS,ioos:station:USF.COMPS:ARP:1,2019-05-23T16:54:00,28.4330,-82.6670,35.13,11111222 
COMPS,ioos:station:USF.COMPS:ARP:1,2019-05-23T17:54:00,28.4330,-82.6670,36.14,11111222 
COMPS,ioos:station:USF.COMPS:ARP:1,2019-05-23T18:54:00,28.4330,-82.6670,36.26,11111222 
COMPS,ioos:station:USF.COMPS:ARP:1,2019-05-23T19:54:00,28.4330,-82.6670,36.77,11111222 
COMPS,ioos:station:USF.COMPS:ARP:1,2019-05-23T20:54:00,28.4330,-82.6670,36.81,11111222 
COMPS,ioos:station:USF.COMPS:ARP:1,2019-05-23T21:54:00,28.4330,-82.6670,36.68,11111222 
COMPS,ioos:station:USF.COMPS:ARP:1,2019-05-23T22:54:00,28.4330,-82.6670,35.72,11111222 